Wind_Speed
26 26 26 26 25 26 29 30 29 29 29 28 28 29 30 32 33 32 33 35 35 35 36 38 40 42 40 38 38 38 36 33 31 29 28 28 28 27 28 28 29 29 29 29 29 29 28 28 28
27 28 28 27 27 28 30 32 31 31 31 29 29 30 31 33 33 34 36 37 38 39 41 42 42 41 40 40 40 38 35 33 32 32 31 31 31 30 30 31 31 31 31 32 32 31 29 28 28
28 28 28 26 25 28 30 30 29 29 29 27 28 29 30 31 34 38 39 41 42 43 43 42 42 41 40 41 40 36 35 35 34 33 33 33 33 33 33 33 32 31 32 32 33 32 31 30 29
30 29 29 25 21 23 25 24 23 24 26 27 27 29 29 34 38 39 41 42 42 43 45 45 44 42 41 38 37 37 37 37 36 35 35 35 35 35 35 35 35 34 34 33 33 33 33 32 32
22 21 19 16 17 19 23 24 23 24 27 29 28 28 32 36 38 39 40 42 44 42 41 40 38 37 38 39 39 38 38 38 38 37 38 38 38 39 38 39 38 37 37 36 35 35 35 34 33
20 19 16 16 18 22 25 27 25 25 27 29 30 33 37 40 42 44 45 42 42 40 39 39 39 38 39 41 41 41 41 41 41 41 41 41 41 41 42 41 42 40 40 39 37 37 37 36 35
20 20 17 18 19 21 28 29 28 29 29 29 30 33 37 40 39 42 44 42 39 39 39 39 40 41 42 42 43 43 43 44 44 44 44 44 44 44 44 44 43 43 42 40 39 39 38 38 37
21 21 19 22 24 22 28 31 32 31 32 30 30 31 36 40 41 40 39 40 39 40 40 41 41 41 42 43 44 45 46 47 46 46 45 45 45 45 45 45 45 45 44 43 42 41 41 40 40
24 24 23 26 28 28 29 32 34 36 36 33 32 35 39 41 37 40 41 43 44 44 43 41 42 44 46 47 47 48 48 48 47 47 46 45 46 46 47 47 47 47 47 47 45 44 43 43 43
28 28 29 29 30 31 31 32 36 38 37 34 35 38 39 35 35 41 44 46 46 44 43 44 45 45 45 46 46 47 46 45 43 42 42 43 43 44 44 45 46 47 48 48 48 48 47 47 46
30 32 34 34 35 34 35 36 37 37 36 37 36 36 38 36 39 44 48 48 45 44 46 46 44 42 42 42 40 40 39 38 38 38 39 39 40 43 45 46 46 47 48 48 49 49 50 50 49
33 34 37 37 37 38 38 37 35 35 35 36 37 37 38 41 44 48 48 44 46 48 51 48 43 39 38 33 31 33 33 34 35 37 39 43 45 45 45 45 45 46 48 48 47 47 49 50 49
38 39 40 39 38 38 35 34 35 34 34 34 35 36 37 39 41 42 43 46 47 52 52 48 42 42 36 35 34 36 38 37 37 42 45 47 47 47 45 45 45 42 42 42 43 43 45 46 48
36 35 34 33 33 33 32 33 33 33 33 34 34 34 34 35 38 41 44 47 50 52 51 43 41 40 35 36 39 41 42 42 44 46 46 46 46 48 47 44 45 45 43 43 44 44 43 44 46
30 30 29 28 28 29 30 31 31 31 31 30 31 33 36 41 44 46 49 48 49 51 44 41 41 33 40 40 42 43 46 46 44 41 38 37 37 38 39 41 41 41 42 43 43 43 44 44 44
25 25 25 25 25 26 26 28 28 28 28 29 32 35 38 43 46 46 44 44 49 48 44 37 33 38 38 40 47 51 48 43 38 38 38 39 40 41 42 43 44 45 45 46 46 46 47 47 46
23 23 24 25 24 24 25 28 29 30 33 35 38 40 42 45 46 44 42 43 45 42 33 33 38 36 42 46 44 42 37 37 38 39 40 41 43 44 44 45 46 48 48 49 49 49 48 47 47
22 23 24 25 27 26 29 32 35 36 37 38 40 42 44 43 41 37 32 33 31 29 32 35 37 42 45 42 36 34 36 38 40 42 42 43 44 44 45 45 46 47 49 50 51 51 50 50 50
25 25 25 27 31 33 34 35 36 38 40 43 44 43 38 33 27 23 23 25 25 26 30 36 40 35 37 37 37 39 40 40 40 41 41 41 41 41 41 41 41 41 40 41 43 46 50 52 52
26 28 30 30 34 35 38 40 41 41 41 39 31 21 19 15 16 22 28 23 23 29 35 37 34 34 38 39 42 41 40 39 40 41 40 38 35 33 30 29 29 29 29 29 32 34 36 40 44
30 31 31 33 33 35 38 39 40 40 35 21 20 18 17 17 18 18 21 21 24 32 36 32 32 35 40 39 38 38 38 36 32 30 30 30 28 27 27 26 26 27 27 28 29 30 30 31 31
31 32 32 33 35 36 36 35 29 20 23 21 19 17 17 17 17 17 15 22 28 31 31 32 35 37 35 34 35 30 24 25 27 29 28 28 28 27 27 25 24 24 25 25 27 26 26 26 27
33 32 32 33 34 33 31 26 15 13 19 11 10 11 13 14 17 14 17 24 26 27 30 32 32 33 31 23 20 22 25 25 21 24 24 27 27 32 33 34 32 30 30 29 28 28 27 25 24
35 34 33 31 28 28 21 11 9 14 11 10 10 10 11 9 8 11 15 19 23 26 29 29 24 16 16 19 23 23 22 22 24 27 26 30 29 32 36 39 37 35 36 35 35 35 35 35 35
37 36 31 28 25 20 11 8 7 9 10 12 12 14 13 12 12 15 17 20 25 23 15 12 14 18 20 22 24 24 26 27 27 30 31 30 33 36 39 41 41 41 42 42 42 40 39 39 41
35 30 25 22 17 9 3 4 6 8 10 12 12 11 13 15 16 18 22 20 14 11 13 16 19 23 25 22 22 26 28 30 30 31 35 35 38 39 41 44 45 45 45 43 44 45 45 46 42
30 22 14 8 2 4 3 3 2 6 9 10 11 13 16 18 21 21 16 11 14 14 17 20 21 25 27 30 29 29 31 31 34 36 39 41 43 45 46 49 50 48 47 48 52 57 55 55 54
17 7 2 5 7 5 3 2 5 6 8 8 10 15 17 22 19 15 12 12 15 17 19 21 25 26 28 29 31 32 32 35 38 40 44 46 48 50 52 49 47 47 52 53 53 54 56 56 57
6 2 6 6 8 6 14 6 5 8 9 10 15 18 21 19 16 16 15 14 15 18 21 25 27 30 31 32 33 35 36 40 43 46 46 47 44 43 46 46 47 49 52 52 49 48 47 49 51
6 9 10 8 15 10 9 8 6 10 10 13 17 20 20 14 18 16 14 14 18 20 23 25 28 30 30 32 34 36 39 40 40 44 39 40 42 45 45 47 48 49 51 50 51 53 52 53 54
Wind_Direction
280 281 283 282 284 283 282 284 285 288 287 285 282 278 274 269 269 269 271 271 275 277 281 284 286 289 288 288 291 292 292 291 291 289 287 284 281 279 279 279 279 279 280 278 277 275 271 269 266
280 281 281 283 284 283 282 282 284 284 286 286 283 280 275 270 267 269 272 275 278 280 281 283 285 287 288 287 290 291 287 287 287 286 284 282 280 278 277 278 280 282 282 280 278 277 275 272 267
286 285 284 285 284 281 279 282 283 286 286 287 287 288 280 270 271 274 279 280 283 283 284 286 288 290 289 291 293 292 287 287 287 286 284 281 278 275 274 275 276 278 277 278 279 277 275 273 270
285 286 286 287 283 280 282 286 290 289 288 289 286 284 275 275 279 282 282 283 283 286 287 289 291 293 295 295 294 292 290 290 289 287 284 280 278 276 275 274 275 274 274 274 274 273 272 270 269
282 283 288 291 282 282 284 282 287 293 298 294 288 281 277 282 284 282 281 283 285 285 290 293 294 295 295 295 294 292 290 288 286 283 282 280 280 279 277 276 275 274 273 273 272 271 271 269 268
284 285 289 290 289 285 284 287 290 295 297 299 293 283 282 284 280 282 284 286 287 287 290 292 293 295 294 294 293 292 290 287 285 283 282 280 278 276 275 274 274 273 272 271 270 270 269 268 266
283 284 287 285 279 283 284 288 290 294 294 297 296 293 288 283 285 287 289 288 287 290 293 295 296 297 297 295 292 289 286 285 284 283 282 280 278 277 275 273 271 270 270 268 268 267 267 265 264
282 285 289 284 282 284 285 286 289 291 292 291 291 294 288 288 291 290 288 290 295 302 299 297 297 296 294 292 291 289 288 286 284 282 281 280 278 277 274 273 271 269 267 266 265 263 263 262 261
282 285 289 285 285 286 285 286 290 293 292 288 286 287 288 289 291 291 293 295 304 306 303 300 298 297 295 292 290 288 286 285 283 282 280 278 276 274 273 272 271 269 268 266 264 262 259 259 258
289 291 290 289 288 288 287 288 290 291 288 284 281 282 282 287 292 294 295 299 303 303 300 297 298 297 294 291 289 287 286 284 282 281 280 278 277 275 274 272 270 269 268 267 266 264 260 259 257
292 294 292 292 291 289 288 289 288 286 285 283 280 279 283 290 291 293 296 299 301 300 296 296 296 294 291 289 287 286 286 288 286 284 283 281 281 280 278 277 274 273 269 266 262 262 260 258 256
295 294 292 291 291 290 290 288 286 286 287 288 288 290 291 290 291 292 294 296 297 296 297 297 301 303 298 291 296 296 290 289 283 282 281 283 284 283 279 275 275 277 275 271 268 264 262 258 254
293 290 289 289 288 285 284 285 285 286 286 286 286 288 289 288 289 292 293 293 294 295 297 301 305 306 304 293 295 300 291 288 286 289 289 285 284 280 278 276 277 276 275 272 268 266 263 259 256
289 287 286 285 286 288 289 289 289 290 291 290 290 291 291 290 287 287 287 289 290 293 295 303 303 303 299 295 301 300 296 289 290 291 288 285 283 279 275 272 271 270 269 269 268 267 264 261 260
284 286 287 287 287 288 289 287 287 288 288 288 289 290 289 287 286 284 285 285 287 287 297 296 300 294 299 292 297 298 295 287 287 286 283 282 282 281 279 278 277 273 271 269 266 264 265 265 260
286 288 287 286 285 285 286 286 288 289 288 288 289 288 286 284 283 282 282 282 283 290 294 297 296 294 296 296 298 295 288 283 282 281 283 283 283 281 279 278 276 275 273 271 268 264 261 260 258
291 290 289 289 288 289 289 289 290 289 288 288 288 285 281 279 278 279 278 278 282 291 292 291 293 297 303 294 291 291 290 286 286 287 286 285 283 281 279 277 274 273 271 269 268 265 261 258 255
293 292 291 291 290 290 288 287 288 291 292 292 289 285 282 281 280 275 274 281 286 286 291 291 293 295 294 295 296 292 289 289 291 290 288 286 284 282 280 277 274 271 267 265 263 262 260 258 255
294 293 292 291 292 292 292 295 298 298 297 295 291 288 287 282 278 279 280 284 287 293 291 296 296 300 303 299 292 293 294 295 295 294 293 291 290 287 284 282 279 275 272 269 267 265 262 260 256
299 297 297 298 299 300 302 301 300 299 298 296 294 291 295 286 280 278 277 287 284 282 290 293 298 306 304 299 299 300 305 305 303 301 300 299 298 295 292 287 282 279 275 271 267 264 263 263 261
302 303 303 303 299 299 298 298 301 302 300 300 291 292 287 270 284 276 278 285 280 291 292 303 308 303 299 299 303 306 305 305 307 308 308 308 308 306 299 292 286 280 277 273 269 263 259 256 257
304 306 305 300 299 298 299 303 306 301 305 296 286 284 277 275 279 286 294 284 290 297 307 304 302 301 306 309 309 310 310 308 305 306 310 308 309 308 304 301 297 292 284 278 275 275 267 256 253
306 304 300 297 297 299 305 310 302 321 331 321 309 301 299 290 281 296 284 294 303 300 300 306 308 312 314 318 316 308 307 313 320 317 318 316 314 317 315 310 306 301 301 294 290 286 278 271 262
308 306 303 304 304 302 310 306 314 327 332 349 34 21 18 7 335 317 308 305 308 311 318 318 318 323 316 311 310 314 315 315 309 315 316 316 309 308 310 309 303 297 292 286 282 279 275 270 271
310 310 306 304 303 306 303 311 325 352 25 12 20 18 8 356 337 326 324 324 324 326 327 321 312 307 313 314 313 317 321 319 320 322 318 312 310 305 299 298 294 289 286 282 278 275 274 268 263
313 306 304 301 300 295 265 288 321 358 12 4 9 11 352 341 340 337 330 328 322 317 313 310 307 307 309 311 310 317 322 324 321 316 310 306 300 298 296 294 291 285 281 278 275 271 267 267 261
314 314 315 320 106 138 145 190 262 5 3 1 358 356 350 348 341 333 333 321 307 305 309 310 313 313 319 318 319 319 322 320 317 310 309 307 304 301 296 292 288 283 280 275 273 269 265 262 258
328 329 79 86 107 116 100 46 47 29 4 2 353 358 354 346 339 339 328 313 322 323 323 322 325 328 324 320 321 319 316 315 316 312 312 306 301 297 295 296 291 284 280 278 274 269 264 258 257
345 33 143 106 77 33 118 133 73 25 26 3 2 359 351 342 348 345 333 325 331 337 338 334 332 333 329 325 322 320 319 319 319 310 308 313 311 306 300 302 304 299 293 287 283 278 270 262 253
47 110 120 93 56 94 99 98 48 43 25 6 4 358 348 356 359 349 339 341 351 346 343 340 339 336 333 332 330 324 322 324 316 319 322 317 314 315 313 307 297 296 294 289 280 272 264 259 253
Height
5851 5851 5850 5850 5852 5849 5845 5844 5843 5842 5842 5842 5840 5839 5839 5836 5835 5836 5833 5830 5829 5828 5826 5825 5823 5822 5820 5819 5817 5816 5815 5813 5813 5812 5812 5812 5811 5810 5810 5810 5809 5810 5810 5810 5810 5809 5809 5810 5810
5846 5846 5846 5845 5846 5843 5841 5839 5838 5837 5836 5836 5835 5833 5832 5831 5829 5827 5826 5824 5822 5821 5820 5818 5816 5815 5813 5812 5811 5809 5809 5808 5807 5806 5806 5806 5805 5805 5804 5803 5803 5803 5802 5803 5803 5803 5803 5803 5804
5842 5841 5840 5840 5840 5837 5835 5834 5833 5832 5831 5830 5829 5828 5827 5826 5824 5822 5820 5818 5816 5814 5812 5811 5810 5808 5806 5805 5803 5802 5801 5801 5800 5799 5799 5798 5798 5797 5798 5797 5797 5796 5796 5796 5795 5795 5796 5796 5797
5836 5836 5835 5835 5833 5831 5830 5829 5829 5828 5826 5825 5824 5824 5823 5820 5818 5816 5814 5812 5810 5808 5806 5803 5801 5800 5798 5797 5796 5795 5794 5793 5792 5791 5790 5789 5789 5789 5789 5789 5789 5789 5789 5789 5788 5788 5788 5789 5790
5830 5830 5831 5831 5829 5827 5825 5825 5826 5825 5823 5821 5819 5818 5816 5814 5812 5810 5808 5805 5803 5801 5799 5796 5794 5792 5790 5789 5788 5787 5786 5785 5783 5782 5781 5781 5781 5781 5781 5780 5781 5781 5781 5781 5781 5781 5780 5781 5782
5827 5827 5828 5827 5826 5823 5822 5820 5820 5819 5818 5816 5815 5812 5811 5808 5805 5803 5800 5798 5796 5793 5791 5789 5787 5785 5783 5782 5780 5778 5777 5775 5774 5773 5772 5772 5772 5771 5771 5771 5770 5771 5771 5771 5771 5771 5772 5773 5774
5822 5823 5825 5823 5821 5820 5817 5815 5815 5813 5812 5812 5810 5807 5805 5801 5798 5795 5793 5790 5788 5786 5784 5782 5779 5776 5774 5772 5770 5768 5766 5765 5764 5762 5762 5761 5761 5760 5759 5760 5759 5759 5759 5760 5761 5761 5762 5763 5765
5817 5818 5820 5818 5816 5817 5812 5810 5809 5808 5807 5805 5802 5801 5797 5793 5791 5787 5785 5782 5780 5777 5776 5773 5771 5769 5766 5763 5761 5759 5757 5755 5754 5752 5751 5750 5749 5748 5747 5747 5747 5747 5748 5749 5750 5751 5751 5753 5754
5812 5812 5814 5812 5811 5810 5808 5805 5803 5802 5800 5797 5795 5793 5789 5786 5783 5779 5777 5774 5772 5770 5768 5766 5763 5760 5757 5755 5752 5749 5747 5745 5743 5741 5740 5739 5738 5737 5736 5735 5735 5735 5736 5737 5738 5739 5740 5742 5744
5809 5810 5808 5806 5805 5804 5802 5801 5798 5795 5792 5790 5787 5785 5781 5779 5776 5772 5769 5767 5765 5762 5760 5757 5755 5752 5749 5746 5743 5739 5737 5734 5732 5730 5728 5727 5726 5725 5724 5724 5723 5723 5723 5724 5725 5726 5728 5729 5732
5805 5803 5801 5800 5799 5797 5795 5793 5790 5787 5784 5781 5780 5778 5775 5773 5769 5765 5762 5760 5758 5754 5752 5750 5747 5744 5741 5738 5734 5731 5728 5725 5722 5720 5718 5716 5714 5712 5711 5710 5710 5710 5710 5710 5711 5712 5714 5716 5719
5798 5796 5794 5793 5792 5789 5786 5783 5780 5779 5778 5776 5773 5770 5768 5766 5762 5758 5755 5752 5749 5746 5742 5740 5737 5735 5731 5728 5726 5722 5719 5716 5712 5710 5707 5705 5703 5701 5699 5698 5698 5697 5697 5697 5698 5699 5701 5702 5705
5791 5789 5786 5785 5783 5780 5778 5776 5773 5771 5770 5768 5766 5764 5761 5758 5755 5751 5748 5743 5740 5736 5733 5731 5728 5725 5722 5719 5716 5712 5709 5705 5702 5699 5696 5694 5691 5689 5688 5687 5686 5685 5685 5685 5685 5686 5687 5689 5691
5784 5781 5779 5778 5776 5773 5771 5768 5766 5765 5763 5761 5759 5756 5754 5751 5747 5744 5739 5735 5731 5728 5725 5723 5720 5717 5713 5710 5706 5702 5699 5695 5692 5688 5685 5682 5679 5677 5676 5675 5674 5674 5673 5673 5673 5674 5675 5677 5680
5776 5775 5774 5772 5770 5767 5765 5762 5760 5758 5756 5754 5752 5749 5747 5743 5739 5735 5730 5726 5722 5718 5717 5716 5712 5709 5705 5701 5697 5694 5690 5686 5682 5678 5675 5672 5669 5667 5665 5664 5663 5662 5662 5661 5662 5663 5664 5666 5668
5771 5770 5768 5766 5764 5762 5760 5757 5754 5752 5750 5747 5745 5743 5739 5734 5730 5725 5721 5717 5713 5711 5710 5706 5703 5701 5697 5693 5689 5685 5681 5676 5672 5669 5666 5663 5660 5657 5655 5652 5650 5649 5648 5648 5648 5650 5652 5654 5655
5766 5764 5762 5760 5758 5756 5754 5750 5748 5746 5743 5740 5737 5733 5729 5725 5719 5715 5712 5708 5706 5704 5702 5699 5696 5692 5688 5684 5680 5675 5670 5667 5663 5659 5656 5652 5648 5645 5642 5640 5637 5636 5635 5635 5634 5635 5637 5639 5641
5762 5759 5757 5754 5752 5750 5748 5745 5742 5739 5735 5731 5727 5722 5718 5713 5709 5706 5703 5702 5700 5697 5695 5692 5689 5684 5680 5676 5670 5666 5662 5658 5654 5649 5644 5640 5636 5632 5629 5626 5624 5622 5621 5620 5619 5620 5621 5624 5627
5757 5754 5751 5748 5745 5743 5740 5738 5733 5729 5725 5719 5715 5710 5705 5702 5700 5699 5697 5696 5694 5692 5688 5685 5681 5676 5672 5667 5662 5658 5653 5647 5642 5637 5632 5627 5622 5619 5616 5613 5611 5608 5607 5605 5604 5605 5606 5608 5610
5751 5748 5744 5742 5737 5734 5730 5727 5723 5719 5715 5709 5704 5701 5699 5697 5695 5694 5692 5691 5689 5685 5682 5677 5673 5669 5664 5659 5653 5647 5641 5635 5630 5623 5617 5613 5610 5606 5604 5601 5598 5595 5594 5592 5591 5592 5593 5594 5596
5743 5741 5737 5734 5731 5727 5723 5719 5713 5707 5703 5701 5698 5697 5695 5693 5691 5690 5688 5687 5683 5679 5675 5670 5666 5662 5656 5651 5644 5638 5632 5627 5620 5614 5609 5603 5599 5596 5593 5590 5587 5585 5583 5582 5581 5581 5581 5583 5585
5737 5734 5731 5726 5723 5719 5715 5712 5707 5702 5698 5695 5693 5692 5690 5689 5687 5686 5684 5681 5677 5674 5670 5666 5660 5654 5648 5641 5635 5629 5623 5618 5613 5608 5602 5596 5591 5586 5582 5579 5577 5575 5574 5573 5572 5572 5572 5573 5575
5732 5727 5723 5719 5715 5711 5708 5705 5701 5699 5694 5691 5690 5689 5687 5685 5684 5682 5680 5677 5674 5671 5666 5659 5653 5646 5640 5634 5627 5621 5616 5611 5607 5600 5595 5589 5582 5576 5572 5567 5565 5562 5560 5559 5559 5559 5561 5563 5565
5723 5719 5715 5711 5707 5704 5702 5700 5699 5697 5693 5691 5689 5687 5685 5683 5681 5679 5678 5674 5670 5665 5658 5652 5646 5639 5633 5627 5620 5614 5609 5604 5598 5591 5586 5580 5574 5568 5562 5558 5555 5552 5550 5548 5547 5547 5548 5549 5552
5714 5709 5705 5703 5700 5699 5697 5697 5696 5695 5692 5690 5688 5686 5684 5682 5680 5678 5674 5669 5664 5659 5653 5646 5640 5634 5628 5621 5614 5608 5601 5595 5590 5584 5577 5571 5564 5557 5551 5545 5540 5537 5534 5532 5531 5531 5532 5534 5537
5706 5702 5698 5695 5694 5695 5695 5696 5695 5694 5692 5690 5688 5686 5684 5682 5679 5675 5669 5665 5659 5654 5647 5642 5635 5629 5623 5616 5609 5602 5596 5590 5582 5574 5566 5560 5552 5546 5539 5532 5525 5520 5516 5514 5512 5512 5513 5514 5517
5696 5693 5692 5690 5690 5692 5694 5695 5694 5693 5692 5690 5688 5685 5683 5680 5675 5670 5666 5661 5655 5650 5644 5638 5631 5624 5618 5611 5604 5597 5589 5581 5573 5564 5555 5547 5539 5531 5523 5515 5508 5502 5497 5493 5491 5490 5491 5494 5498
5690 5690 5690 5690 5691 5692 5693 5694 5694 5694 5693 5691 5688 5685 5682 5678 5672 5668 5663 5658 5653 5647 5641 5634 5627 5621 5614 5606 5599 5591 5583 5574 5564 5554 5545 5535 5525 5514 5503 5494 5486 5479 5473 5469 5466 5465 5465 5467 5472
5688 5688 5690 5691 5692 5691 5693 5694 5695 5694 5693 5691 5688 5684 5680 5675 5670 5665 5661 5655 5650 5645 5638 5631 5625 5618 5610 5602 5593 5585 5575 5564 5555 5545 5532 5521 5509 5497 5486 5476 5467 5459 5451 5444 5440 5439 5440 5443 5448
5689 5689 5691 5692 5693 5692 5694 5696 5695 5695 5693 5691 5687 5683 5678 5673 5669 5665 5659 5654 5649 5642 5637 5630 5622 5614 5605 5597 5588 5577 5568 5558 5545 5532 5521 5509 5496 5484 5471 5458 5446 5435 5426 5420 5415 5413 5414 5416 5421